User: anonymous   Login
Location: Tyler Bend Campground
(35.9875°N, 92.7606°W)
Time: 22:30:43
(UTC-06:00)
Language:

CZ-2C R/B - Orbit

View from above orbital plane
View from above orbital plane
View from above satellite
View from above satellite

Ground track
Ground track

The orbit data is extracted from the following two-line orbital elements,

1 36089U 09061B   16041.12248817  .00000094  00000-0  34456-4 0  9996
2 36089  98.0576  58.8925 0083205 123.7126 309.4964 14.49542389330279
Epoch (UTC): 10 February 2016 02:56:22
Eccentricity: 0.0083205
inclination: 98.0576°
perigee height: 668 km
apogee height: 786 km
right ascension of ascending node: 58.8925°
argument of perigee: 123.7126°
revolutions per day: 14.49542389
mean anomaly at epoch: 309.4964°
orbit number at epoch: 33027

The dashed part of the orbit path shows where the satellite is in the earth's shadow,  

DLR